Location: ???????
(55.7027°N, 37.3832°E)
Time: 07:25:09
(UTC+00:00)

NOSS 3-4 (A) - Pass Details

Date: 14 April 2026
Orbit: 769 x 1442 km, 63.4° (Epoch: 10 January)

Event Time Altitude Azimuth Distance (km) Brightness Sun altitude
Rises 19:54:45 0° 238° (WSW) 3,268 6.2 -21.7°
Reaches altitude 10° 19:57:03 10° 240° (WSW) 2,377 5.5 -21.8°
Maximum altitude 20:02:29 75° 327° (NNW) 900 3.4 -22.1°
Drops below altitude 10° 20:08:42 10° 52° (NE) 2,713 6.0 -22.5°
Sets 20:11:30 0° 55° (NE) 3,766 6.7 -22.6°
